StationID,Date,MaxTemp,MinTemp,Precipitation,Snowfall,SnowDepth
"USC00502465","1981-01-01",39.92,24.98,173.00,0.00,711.00
"USC00502465","1981-01-02",37.04,28.94,185.00,0.00,406.00
"USC00502465","1981-01-03",35.06,26.06,0.00,0.00,406.00
"USC00502465","1981-01-04",39.92,,28.00,0.00,381.00
"USC00502465","1981-01-05",37.94,33.08,0.00,0.00,356.00
"USC00502465","1981-01-06",37.94,21.92,0.00,0.00,356.00
"USC00502465","1981-01-07",39.02,21.02,46.00,0.00,356.00
"USC00502465","1981-01-08",37.94,30.02,99.00,38.00,381.00
"USC00502465","1981-01-09",35.96,28.94,0.00,0.00,381.00
"USC00502465","1981-01-10",33.98,30.02,36.00,38.00,406.00
"USC00502465","1981-01-11",33.08,8.06,0.00,0.00,406.00
"USC00502465","1981-01-12",28.94,10.04,0.00,0.00,406.00
"USC00502465","1981-01-13",35.06,26.06,0.00,0.00,406.00
"USC00502465","1981-01-14",37.94,30.02,76.00,0.00,406.00
"USC00502465","1981-01-15",39.92,32.00,51.00,0.00,381.00
"USC00502465","1981-01-16",33.98,30.02,3.00,0.00,381.00
"USC00502465","1981-01-17",33.98,28.04,23.00,0.00,381.00
"USC00502465","1981-01-18",28.94,23.00,8.00,25.00,406.00
"USC00502465","1981-01-19",26.06,19.94,51.00,51.00,457.00
"USC00502465","1981-01-20",21.92,-2.92,8.00,0.00,432.00
"USC00502465","1981-01-21",10.04,-20.02,0.00,0.00,432.00
"USC00502465","1981-01-22",3.92,-18.94,0.00,0.00,432.00
"USC00502465","1981-01-23",28.94,-9.94,84.00,76.00,533.00
"USC00502465","1981-01-24",37.04,21.92,84.00,51.00,584.00
"USC00502465","1981-01-25",37.94,32.00,251.00,0.00,559.00
"USC00502465","1981-01-26",33.98,19.94,0.00,0.00,559.00
"USC00502465","1981-01-27",28.94,10.04,15.00,0.00,559.00
"USC00502465","1981-01-28",28.94,10.94,36.00,89.00,635.00
"USC00502465","1981-01-29",39.02,10.04,114.00,13.00,660.00
"USC00502465","1981-01-30",39.02,30.02,305.00,0.00,635.00
"USC00502465","1981-01-31",37.04,19.04,0.00,0.00,584.00
"USC00502465","1981-02-01",39.02,,23.00,51.00,635.00
"USC00502465","1981-02-02",37.04,24.98,74.00,0.00,610.00
"USC00502465","1981-02-03",37.04,19.94,0.00,0.00,610.00
"USC00502465","1981-02-04",35.96,17.96,0.00,0.00,610.00
"USC00502465","1981-02-05",39.02,33.08,310.00,0.00,584.00
"USC00502465","1981-02-06",39.02,26.06,61.00,0.00,533.00
"USC00502465","1981-02-07",41.00,26.96,180.00,0.00,508.00
"USC00502465","1981-02-08",42.08,32.00,229.00,0.00,432.00
"USC00502465","1981-02-09",41.00,33.08,74.00,0.00,406.00
"USC00502465","1981-02-10",37.94,21.92,36.00,0.00,381.00
"USC00502465","1981-02-11",39.02,19.94,0.00,0.00,381.00
"USC00502465","1981-02-12",24.98,-0.04,0.00,0.00,381.00
"USC00502465","1981-02-13",12.02,1.94,0.00,0.00,381.00
"USC00502465","1981-02-14",21.92,-4.00,0.00,0.00,381.00
"USC00502465","1981-02-15",19.04,-9.94,0.00,0.00,381.00
"USC00502465","1981-02-16",10.94,-11.02,0.00,0.00,381.00
"USC00502465","1981-02-17",1.94,-11.02,0.00,0.00,381.00
"USC00502465","1981-02-18",6.98,-9.94,0.00,0.00,381.00
"USC00502465","1981-02-19",5.00,-20.02,0.00,0.00,381.00
"USC00502465","1981-02-20",6.08,-14.98,8.00,25.00,406.00
"USC00502465","1981-02-21",12.02,-7.06,10.00,25.00,432.00
"USC00502465","1981-02-22",15.08,-2.92,0.00,0.00,432.00
"USC00502465","1981-02-23",28.04,-11.92,0.00,0.00,432.00
"USC00502465","1981-02-24",33.08,-0.94,76.00,102.00,533.00
"USC00502465","1981-02-25",39.02,23.00,127.00,0.00,457.00
"USC00502465","1981-02-26",39.02,32.00,30.00,0.00,432.00
"USC00502465","1981-02-27",39.02,26.96,0.00,0.00,432.00
"USC00502465","1981-02-28",37.94,26.96,152.00,25.00,457.00
"USC00502465","1981-03-01",39.02,19.94,216.00,0.00,457.00
"USC00502465","1981-03-02",37.04,26.96,,25.00,483.00
"USC00502465","1981-03-03",37.94,12.92,0.00,0.00,483.00
"USC00502465","1981-03-04",37.94,19.94,0.00,0.00,457.00
"USC00502465","1981-03-05",35.06,10.04,20.00,51.00,508.00
"USC00502465","1981-03-06",35.96,26.06,0.00,0.00,508.00
"USC00502465","1981-03-07",33.98,23.00,0.00,0.00,533.00
"USC00502465","1981-03-08",37.04,21.02,0.00,0.00,533.00
"USC00502465","1981-03-09",39.92,19.94,0.00,0.00,533.00
"USC00502465","1981-03-10",42.98,24.08,0.00,0.00,483.00
"USC00502465","1981-03-11",42.08,24.08,0.00,0.00,483.00
"USC00502465","1981-03-12",37.94,30.02,0.00,0.00,483.00
"USC00502465","1981-03-13",41.00,,58.00,0.00,457.00
"USC00502465","1981-03-14",41.00,30.92,0.00,0.00,457.00
"USC00502465","1981-03-15",42.08,32.00,8.00,0.00,432.00
"USC00502465","1981-03-16",41.00,33.98,0.00,0.00,406.00
"USC00502465","1981-03-17",41.00,12.02,3.00,0.00,381.00
"USC00502465","1981-03-18",44.06,30.92,53.00,0.00,381.00
"USC00502465","1981-03-19",39.92,30.92,152.00,0.00,381.00
"USC00502465","1981-03-20",44.06,32.00,0.00,0.00,356.00
"USC00502465","1981-03-21",44.06,28.94,0.00,0.00,330.00
"USC00502465","1981-03-22",44.96,19.94,0.00,0.00,305.00
"USC00502465","1981-03-23",41.00,17.96,0.00,0.00,305.00
"USC00502465","1981-03-24",41.00,17.96,0.00,0.00,305.00
"USC00502465","1981-03-25",39.02,21.02,0.00,0.00,305.00
"USC00502465","1981-03-26",39.02,30.02,76.00,0.00,279.00
"USC00502465","1981-03-27",37.94,30.02,84.00,0.00,279.00
"USC00502465","1981-03-28",39.92,24.08,0.00,0.00,279.00
"USC00502465","1981-03-29",39.92,30.92,38.00,0.00,254.00
"USC00502465","1981-03-30",39.02,,74.00,0.00,229.00
"USC00502465","1981-03-31",35.06,10.94,0.00,0.00,229.00
"USC00502465","1981-04-01",37.04,21.92,94.00,76.00,305.00
"USC00502465","1981-04-02",35.96,,,51.00,356.00
"USC00502465","1981-04-03",37.04,,0.00,0.00,356.00
"USC00502465","1981-04-04",37.94,10.94,0.00,0.00,305.00
"USC00502465","1981-04-05",35.06,23.00,3.00,0.00,305.00
"USC00502465","1981-04-06",37.04,26.06,15.00,25.00,330.00
"USC00502465","1981-04-07",39.92,19.04,0.00,0.00,305.00
"USC00502465","1981-04-08",42.08,15.08,0.00,0.00,305.00
"USC00502465","1981-04-09",35.06,19.04,0.00,0.00,305.00
"USC00502465","1981-04-10",42.98,21.92,0.00,0.00,279.00
"USC00502465","1981-04-11",44.96,30.92,0.00,0.00,229.00
"USC00502465","1981-04-12",46.04,17.96,0.00,0.00,127.00
"USC00502465","1981-04-13",46.04,17.96,0.00,0.00,102.00
"USC00502465","1981-04-14",42.08,17.06,0.00,0.00,76.00
"USC00502465","1981-04-15",37.04,17.06,0.00,0.00,51.00
"USC00502465","1981-04-16",35.06,10.94,0.00,0.00,51.00
"USC00502465","1981-04-17",37.94,26.06,0.00,0.00,51.00
"USC00502465","1981-04-18",44.06,28.04,0.00,0.00,25.00
"USC00502465","1981-04-19",48.02,33.08,0.00,0.00,0.00
"USC00502465","1981-04-20",50.00,28.04,0.00,0.00,0.00
"USC00502465","1981-04-21",51.08,28.04,0.00,0.00,0.00
"USC00502465","1981-04-22",48.02,19.94,0.00,0.00,0.00
"USC00502465","1981-04-23",48.92,30.02,0.00,0.00,0.00
"USC00502465","1981-04-24",48.02,28.04,0.00,0.00,0.00
"USC00502465","1981-04-25",46.04,28.94,0.00,0.00,0.00
"USC00502465","1981-04-26",50.00,32.00,0.00,0.00,0.00
"USC00502465","1981-04-27",51.08,21.92,0.00,0.00,0.00
"USC00502465","1981-04-28",50.00,32.00,0.00,0.00,0.00
"USC00502465","1981-04-29",44.96,28.04,0.00,0.00,0.00
"USC00502465","1981-04-30",44.06,35.06,28.00,0.00,0.00
"USC00502465","1981-05-01",39.92,30.02,13.00,0.00,0.00
"USC00502465","1981-05-02",41.00,30.02,0.00,0.00,0.00
"USC00502465","1981-05-03",44.06,30.02,0.00,0.00,0.00
"USC00502465","1981-05-04",44.06,30.02,48.00,0.00,0.00
"USC00502465","1981-05-05",48.02,32.00,69.00,0.00,0.00
"USC00502465","1981-05-06",46.04,33.08,114.00,0.00,0.00
"USC00502465","1981-05-07",57.02,26.06,0.00,0.00,0.00
"USC00502465","1981-05-08",64.94,35.96,0.00,0.00,0.00
"USC00502465","1981-05-09",66.02,30.02,0.00,0.00,0.00
"USC00502465","1981-05-10",64.04,33.08,0.00,0.00,0.00
"USC00502465","1981-05-11",53.96,39.02,38.00,0.00,0.00
"USC00502465","1981-05-12",53.96,41.00,18.00,0.00,0.00
"USC00502465","1981-05-13",59.00,33.08,10.00,0.00,0.00
"USC00502465","1981-05-14",60.98,26.06,0.00,0.00,0.00
"USC00502465","1981-05-15",57.02,30.02,8.00,0.00,0.00
"USC00502465","1981-05-16",59.00,26.96,0.00,0.00,0.00
"USC00502465","1981-05-17",62.96,35.06,0.00,0.00,0.00
"USC00502465","1981-05-18",53.96,35.06,10.00,0.00,0.00
"USC00502465","1981-05-19",59.00,39.92,152.00,0.00,0.00
"USC00502465","1981-05-20",53.06,35.06,10.00,0.00,0.00
"USC00502465","1981-05-21",53.96,35.06,51.00,0.00,0.00
"USC00502465","1981-05-22",53.06,33.98,15.00,0.00,0.00
"USC00502465","1981-05-23",55.04,33.98,0.00,0.00,0.00
"USC00502465","1981-05-24",55.04,35.96,0.00,0.00,0.00
"USC00502465","1981-05-25",53.96,24.98,8.00,0.00,0.00
"USC00502465","1981-05-26",60.08,32.00,0.00,0.00,0.00
"USC00502465","1981-05-27",66.92,33.98,0.00,0.00,0.00
"USC00502465","1981-05-28",66.02,30.02,58.00,0.00,0.00
"USC00502465","1981-05-29",59.00,30.02,28.00,0.00,0.00
"USC00502465","1981-05-30",62.06,42.98,33.00,0.00,0.00
"USC00502465","1981-05-31",66.02,42.08,0.00,0.00,0.00
"USC00502465","1981-06-01",64.94,44.96,0.00,0.00,0.00
"USC00502465","1981-06-02",62.06,41.00,0.00,0.00,0.00
"USC00502465","1981-06-03",60.08,30.92,0.00,0.00,0.00
"USC00502465","1981-06-04",64.94,35.96,0.00,0.00,0.00
"USC00502465","1981-06-05",59.00,39.92,8.00,0.00,0.00
"USC00502465","1981-06-06",57.92,28.94,25.00,0.00,0.00
"USC00502465","1981-06-07",,,0.00,0.00,0.00
"USC00502465","1981-06-08",62.96,39.92,137.00,0.00,0.00
"USC00502465","1981-06-09",57.92,44.96,74.00,0.00,0.00
"USC00502465","1981-06-10",51.08,44.06,203.00,0.00,0.00
"USC00502465","1981-06-11",51.98,39.92,51.00,0.00,0.00
"USC00502465","1981-06-12",53.06,28.04,5.00,0.00,0.00
"USC00502465","1981-06-13",57.02,28.04,48.00,0.00,0.00
"USC00502465","1981-06-14",62.96,30.92,0.00,0.00,0.00
"USC00502465","1981-06-15",64.04,30.02,0.00,0.00,0.00
"USC00502465","1981-06-16",55.04,39.02,0.00,0.00,0.00
"USC00502465","1981-06-17",62.06,30.02,0.00,0.00,0.00
"USC00502465","1981-06-18",69.98,37.94,0.00,0.00,0.00
"USC00502465","1981-06-19",71.06,35.96,0.00,0.00,0.00
"USC00502465","1981-06-20",75.02,35.96,0.00,0.00,0.00
"USC00502465","1981-06-21",69.98,,0.00,0.00,0.00
"USC00502465","1981-06-22",55.94,32.00,0.00,0.00,0.00
"USC00502465","1981-06-23",60.98,42.98,81.00,0.00,0.00
"USC00502465","1981-06-24",62.96,33.98,33.00,0.00,0.00
"USC00502465","1981-06-25",64.04,42.08,0.00,0.00,0.00
"USC00502465","1981-06-26",64.94,37.04,0.00,0.00,0.00
"USC00502465","1981-06-27",62.06,35.06,25.00,0.00,0.00
"USC00502465","1981-06-28",60.08,33.08,0.00,0.00,0.00
"USC00502465","1981-06-29",68.00,,0.00,0.00,0.00
"USC00502465","1981-06-30",55.04,37.94,0.00,0.00,0.00
"USC00502465","1981-07-01",62.96,30.92,0.00,0.00,0.00
"USC00502465","1981-07-02",66.92,48.02,0.00,0.00,0.00
"USC00502465","1981-07-03",60.98,,0.00,0.00,0.00
"USC00502465","1981-07-04",66.02,53.06,0.00,0.00,0.00
"USC00502465","1981-07-05",69.08,,0.00,0.00,0.00
"USC00502465","1981-07-06",,,0.00,0.00,0.00
"USC00502465","1981-07-07",64.94,,0.00,0.00,0.00
"USC00502465","1981-07-08",59.00,44.96,74.00,0.00,0.00
"USC00502465","1981-07-09",55.94,48.02,244.00,0.00,0.00
"USC00502465","1981-07-10",60.98,,8.00,0.00,0.00
"USC00502465","1981-07-11",60.08,48.92,41.00,0.00,0.00
"USC00502465","1981-07-12",55.04,48.02,142.00,0.00,0.00
"USC00502465","1981-07-13",55.94,,0.00,0.00,0.00
"USC00502465","1981-07-14",55.94,48.02,203.00,0.00,0.00
"USC00502465","1981-07-15",55.94,48.02,269.00,0.00,0.00
"USC00502465","1981-07-16",57.92,48.02,99.00,0.00,0.00
"USC00502465","1981-07-17",64.04,39.92,8.00,0.00,0.00
"USC00502465","1981-07-18",60.08,50.00,28.00,0.00,0.00
"USC00502465","1981-07-19",57.02,44.96,20.00,0.00,0.00
"USC00502465","1981-07-20",57.02,46.94,0.00,0.00,0.00
"USC00502465","1981-07-21",60.08,44.06,0.00,0.00,0.00
"USC00502465","1981-07-22",66.92,51.98,0.00,0.00,0.00
"USC00502465","1981-07-23",66.92,53.96,58.00,0.00,0.00
"USC00502465","1981-07-24",69.98,53.06,25.00,0.00,0.00
"USC00502465","1981-07-25",60.08,50.00,69.00,0.00,0.00
"USC00502465","1981-07-26",60.08,51.98,28.00,0.00,0.00
"USC00502465","1981-07-27",60.08,51.98,0.00,0.00,0.00
"USC00502465","1981-07-28",62.06,,56.00,0.00,0.00
"USC00502465","1981-07-29",62.06,,0.00,0.00,0.00
"USC00502465","1981-07-30",62.06,,0.00,0.00,0.00
"USC00502465","1981-07-31",60.98,48.92,0.00,0.00,0.00
"USC00502465","1981-08-01",59.00,,36.00,0.00,0.00
"USC00502465","1981-08-02",59.00,,3.00,0.00,0.00
"USC00502465","1981-08-03",64.04,37.94,0.00,0.00,0.00
"USC00502465","1981-08-04",66.02,42.08,0.00,0.00,0.00
"USC00502465","1981-08-05",75.92,35.96,0.00,0.00,0.00
"USC00502465","1981-08-06",77.00,44.06,56.00,0.00,0.00
"USC00502465","1981-08-07",64.94,48.02,64.00,0.00,0.00
"USC00502465","1981-08-08",69.98,51.98,254.00,0.00,0.00
"USC00502465","1981-08-09",66.92,,229.00,0.00,0.00
"USC00502465","1981-08-10",57.92,46.04,165.00,0.00,0.00
"USC00502465","1981-08-11",60.98,39.02,292.00,0.00,0.00
"USC00502465","1981-08-12",55.94,,91.00,0.00,0.00
"USC00502465","1981-08-13",60.08,,0.00,0.00,0.00
"USC00502465","1981-08-14",55.04,,8.00,0.00,0.00
"USC00502465","1981-08-15",57.92,,0.00,0.00,0.00
"USC00502465","1981-08-16",,,0.00,0.00,0.00
"USC00502465","1981-08-17",59.00,,5.00,0.00,0.00
"USC00502465","1981-08-18",60.08,,15.00,0.00,0.00
"USC00502465","1981-08-19",62.96,44.96,0.00,0.00,0.00
"USC00502465","1981-08-20",60.98,44.06,0.00,0.00,0.00
"USC00502465","1981-08-21",55.04,42.08,0.00,0.00,0.00
"USC00502465","1981-08-22",53.96,32.00,0.00,0.00,0.00
"USC00502465","1981-08-23",62.06,35.96,0.00,0.00,0.00
"USC00502465","1981-08-24",55.94,,508.00,0.00,0.00
"USC00502465","1981-08-25",57.02,,876.00,0.00,0.00
"USC00502465","1981-08-26",62.96,51.08,48.00,0.00,0.00
"USC00502465","1981-08-27",73.94,44.96,0.00,0.00,0.00
"USC00502465","1981-08-28",68.00,44.06,0.00,0.00,0.00
"USC00502465","1981-08-29",64.04,44.96,0.00,0.00,0.00
"USC00502465","1981-08-30",60.08,50.00,28.00,0.00,0.00
"USC00502465","1981-08-31",57.92,48.02,10.00,0.00,0.00
"USC00502465","1981-09-01",64.04,46.04,,,
"USC00502465","1981-09-02",64.04,48.92,,,
"USC00502465","1981-09-03",57.92,48.02,,,
"USC00502465","1981-09-04",57.02,46.94,,,
"USC00502465","1981-09-07",51.08,42.08,,,
"USC00502465","1981-09-08",57.02,35.96,,,
"USC00502465","1981-09-09",60.98,37.94,,,
"USC00502465","1981-09-10",57.92,41.00,,,
"USC00502465","1981-09-11",51.08,37.94,,,
"USC00502465","1981-09-12",59.00,46.04,,,
"USC00502465","1981-09-13",51.08,41.00,,,
"USC00502465","1981-09-14",55.94,39.02,,,
"USC00502465","1981-09-15",62.06,41.00,,,
"USC00502465","1981-09-16",60.98,39.92,,,
"USC00502465","1981-09-17",51.98,24.98,,,
"USC00502465","1981-09-18",51.08,21.02,,,
"USC00502465","1981-09-19",55.04,,,,
"USC00502465","1981-09-20",57.02,33.08,,,
"USC00502465","1981-09-21",55.04,30.02,,,
"USC00502465","1981-09-22",53.96,,,,
"USC00502465","1981-09-23",53.06,30.92,,,
"USC00502465","1981-09-24",55.04,,,,
"USC00502465","1981-09-25",51.98,26.06,,,
"USC00502465","1981-09-28",53.06,,,,
"USC00502465","1981-09-29",44.06,19.94,,,
"USC00502465","1981-09-30",42.98,21.02,,,
"USC00502465","1981-10-01",46.94,26.96,0.00,0.00,0.00
"USC00502465","1981-10-02",48.92,21.92,0.00,0.00,0.00
"USC00502465","1981-10-03",48.02,21.92,0.00,0.00,0.00
"USC00502465","1981-10-04",53.06,26.96,0.00,0.00,0.00
"USC00502465","1981-10-05",39.92,21.02,0.00,0.00,0.00
"USC00502465","1981-10-06",39.92,12.92,0.00,0.00,0.00
"USC00502465","1981-10-07",42.98,14.00,0.00,0.00,0.00
"USC00502465","1981-10-08",44.96,12.02,0.00,0.00,0.00
"USC00502465","1981-10-09",39.92,10.04,0.00,0.00,0.00
"USC00502465","1981-10-10",39.02,10.04,0.00,0.00,0.00
"USC00502465","1981-10-11",39.92,,274.00,0.00,0.00
"USC00502465","1981-10-12",46.94,26.96,94.00,0.00,0.00
"USC00502465","1981-10-13",42.98,23.00,0.00,0.00,0.00
"USC00502465","1981-10-14",42.08,28.04,0.00,0.00,0.00
"USC00502465","1981-10-15",37.94,30.02,23.00,0.00,0.00
"USC00502465","1981-10-16",44.06,32.00,0.00,0.00,0.00
"USC00502465","1981-10-17",41.00,30.92,15.00,0.00,0.00
"USC00502465","1981-10-18",42.08,17.96,0.00,0.00,0.00
"USC00502465","1981-10-19",37.94,12.02,0.00,0.00,0.00
"USC00502465","1981-10-20",37.04,14.00,0.00,0.00,0.00
"USC00502465","1981-10-21",48.92,32.00,216.00,0.00,0.00
"USC00502465","1981-10-22",48.02,30.02,43.00,0.00,0.00
"USC00502465","1981-10-23",50.00,39.92,381.00,0.00,0.00
"USC00502465","1981-10-24",50.00,41.00,13.00,0.00,0.00
"USC00502465","1981-10-25",46.04,39.92,102.00,0.00,0.00
"USC00502465","1981-10-26",44.96,33.98,3.00,0.00,0.00
"USC00502465","1981-10-27",42.08,33.98,0.00,0.00,0.00
"USC00502465","1981-10-28",39.92,24.08,0.00,0.00,0.00
"USC00502465","1981-10-29",32.00,6.98,0.00,0.00,0.00
"USC00502465","1981-10-30",28.04,6.08,0.00,0.00,0.00
"USC00502465","1981-10-31",28.94,12.92,0.00,0.00,0.00
"USC00502465","1981-11-01",26.06,3.02,0.00,0.00,0.00
"USC00502465","1981-11-02",26.06,3.92,0.00,0.00,0.00
"USC00502465","1981-11-03",24.98,-0.04,0.00,0.00,0.00
"USC00502465","1981-11-04",24.08,3.02,0.00,0.00,0.00
"USC00502465","1981-11-05",23.00,,0.00,0.00,0.00
"USC00502465","1981-11-06",26.96,3.02,58.00,89.00,102.00
"USC00502465","1981-11-07",39.02,10.94,74.00,38.00,127.00
"USC00502465","1981-11-08",41.00,33.08,33.00,0.00,51.00
"USC00502465","1981-11-09",39.92,33.98,30.00,0.00,0.00
"USC00502465","1981-11-10",39.92,32.00,102.00,0.00,0.00
"USC00502465","1981-11-11",,,0.00,0.00,0.00
"USC00502465","1981-11-12",46.04,30.92,0.00,0.00,0.00
"USC00502465","1981-11-13",42.98,28.04,0.00,0.00,0.00
"USC00502465","1981-11-14",44.96,15.08,0.00,0.00,0.00
"USC00502465","1981-11-15",33.98,10.94,0.00,0.00,0.00
"USC00502465","1981-11-16",35.06,12.02,0.00,0.00,0.00
"USC00502465","1981-11-17",33.98,17.06,0.00,0.00,0.00
"USC00502465","1981-11-18",30.92,14.00,0.00,0.00,0.00
"USC00502465","1981-11-19",24.98,12.02,0.00,0.00,0.00
"USC00502465","1981-11-20",17.96,12.02,38.00,0.00,0.00
"USC00502465","1981-11-21",21.92,8.96,0.00,0.00,0.00
"USC00502465","1981-11-22",33.08,8.96,0.00,0.00,0.00
"USC00502465","1981-11-23",12.92,1.94,0.00,0.00,0.00
"USC00502465","1981-11-24",39.92,,155.00,51.00,51.00
"USC00502465","1981-11-25",39.92,,0.00,0.00,25.00
"USC00502465","1981-11-26",42.98,,343.00,0.00,0.00
"USC00502465","1981-11-27",39.92,30.92,0.00,0.00,0.00
"USC00502465","1981-11-28",37.94,24.98,33.00,,25.00
"USC00502465","1981-11-29",33.08,17.96,0.00,0.00,0.00
"USC00502465","1981-11-30",32.00,15.98,135.00,203.00,203.00
"USC00502465","1981-12-01",32.00,14.00,56.00,51.00,229.00
"USC00502465","1981-12-02",17.96,8.96,0.00,0.00,229.00
"USC00502465","1981-12-03",15.08,-11.92,0.00,0.00,229.00
"USC00502465","1981-12-04",6.08,-23.98,0.00,0.00,229.00
"USC00502465","1981-12-05",3.02,-23.98,0.00,0.00,229.00
"USC00502465","1981-12-06",10.04,-5.08,20.00,13.00,229.00
"USC00502465","1981-12-07",10.94,-14.98,0.00,0.00,229.00
"USC00502465","1981-12-08",10.04,-14.08,0.00,0.00,229.00
"USC00502465","1981-12-09",33.98,8.06,79.00,76.00,305.00
"USC00502465","1981-12-10",,,0.00,0.00,
"USC00502465","1981-12-11",33.08,15.08,58.00,89.00,356.00
"USC00502465","1981-12-12",26.96,14.00,20.00,51.00,432.00
"USC00502465","1981-12-13",35.06,23.00,64.00,0.00,432.00
"USC00502465","1981-12-14",35.06,24.08,0.00,0.00,432.00
"USC00502465","1981-12-15",28.94,21.02,5.00,0.00,432.00
"USC00502465","1981-12-16",33.08,24.08,0.00,0.00,432.00
"USC00502465","1981-12-17",37.94,26.96,20.00,0.00,381.00
"USC00502465","1981-12-18",35.06,24.98,119.00,0.00,381.00
"USC00502465","1981-12-19",26.06,-4.00,0.00,0.00,381.00
"USC00502465","1981-12-20",24.08,-2.92,0.00,0.00,381.00
"USC00502465","1981-12-21",5.00,-14.98,0.00,0.00,381.00
"USC00502465","1981-12-22",12.02,-5.08,0.00,0.00,381.00
"USC00502465","1981-12-23",28.04,-0.94,0.00,0.00,381.00
"USC00502465","1981-12-24",30.02,12.02,0.00,0.00,381.00
"USC00502465","1981-12-25",30.92,-2.92,0.00,0.00,381.00
"USC00502465","1981-12-26",26.96,-9.04,0.00,0.00,381.00
"USC00502465","1981-12-27",8.96,-11.92,0.00,0.00,381.00
"USC00502465","1981-12-28",-0.04,-11.92,0.00,0.00,381.00
"USC00502465","1981-12-29",8.06,-7.06,0.00,0.00,381.00
"USC00502465","1981-12-30",15.08,3.02,53.00,,406.00
"USC00502465","1981-12-31",24.08,5.00,0.00,0.00,406.00
"USC00502465","1982-01-01",33.98,10.04,25.00,0.00,0.00
"USC00502465","1982-01-02",30.92,6.98,0.00,0.00,0.00
"USC00502465","1982-01-03",19.04,-9.04,0.00,0.00,0.00
"USC00502465","1982-01-04",28.04,10.94,0.00,0.00,0.00
"USC00502465","1982-01-05",21.02,-27.94,0.00,0.00,0.00
"USC00502465","1982-01-06",-20.92,-31.00,0.00,0.00,0.00
"USC00502465","1982-01-07",14.00,-5.08,0.00,0.00,0.00
"USC00502465","1982-01-08",12.02,-4.00,0.00,0.00,0.00
"USC00502465","1982-01-09",3.92,-9.94,0.00,0.00,0.00
"USC00502465","1982-01-10",19.94,3.92,0.00,0.00,0.00
"USC00502465","1982-01-11",24.08,10.04,0.00,0.00,0.00
"USC00502465","1982-01-12",32.00,8.96,0.00,0.00,0.00
"USC00502465","1982-01-13",30.92,19.94,0.00,0.00,0.00
"USC00502465","1982-01-14",10.04,8.96,0.00,0.00,0.00
"USC00502465","1982-01-15",32.00,8.96,211.00,279.00,610.00
"USC00502465","1982-01-18",32.00,-2.02,43.00,51.00,635.00
"USC00502465","1982-01-19",28.94,3.02,0.00,0.00,635.00
"USC00502465","1982-01-20",35.06,12.92,53.00,102.00,737.00
"USC00502465","1982-01-21",33.08,28.04,234.00,152.00,889.00
"USC00502465","1982-01-22",28.94,21.92,0.00,0.00,889.00
"USC00502465","1982-01-23",28.94,10.94,0.00,0.00,889.00
"USC00502465","1982-01-24",15.98,10.94,25.00,25.00,914.00
"USC00502465","1982-01-25",21.02,12.92,13.00,25.00,914.00
"USC00502465","1982-01-26",21.02,19.94,23.00,25.00,940.00
"USC00502465","1982-01-27",23.00,15.08,56.00,51.00,965.00
"USC00502465","1982-01-28",35.96,19.04,673.00,254.00,1219.00
"USC00502465","1982-01-29",37.04,26.06,0.00,0.00,1118.00
"USC00502465","1982-01-30",35.06,28.04,10.00,0.00,1118.00
"USC00502465","1982-01-31",37.04,12.02,,0.00,1067.00
"USC00502465","1982-02-01",37.94,32.00,0.00,0.00,965.00
"USC00502465","1982-02-02",41.00,28.04,211.00,0.00,838.00
"USC00502465","1982-02-03",42.98,33.98,259.00,0.00,737.00
"USC00502465","1982-02-04",42.08,6.08,20.00,0.00,635.00
"USC00502465","1982-02-05",37.94,24.98,0.00,0.00,610.00
"USC00502465","1982-02-06",42.08,33.08,25.00,0.00,584.00
"USC00502465","1982-02-07",39.02,32.00,0.00,0.00,559.00
"USC00502465","1982-02-08",39.92,26.96,0.00,0.00,559.00
"USC00502465","1982-02-09",39.92,17.96,0.00,0.00,559.00
"USC00502465","1982-02-10",39.92,8.96,0.00,0.00,559.00
"USC00502465","1982-02-11",33.98,6.98,0.00,0.00,559.00
"USC00502465","1982-02-12",23.00,12.02,0.00,0.00,559.00
"USC00502465","1982-02-13",17.96,-5.98,0.00,0.00,559.00
"USC00502465","1982-02-14",21.92,-25.06,0.00,0.00,559.00
"USC00502465","1982-02-15",,,,0.00,
"USC00502465","1982-02-16",10.04,-23.08,0.00,0.00,559.00
"USC00502465","1982-02-17",-5.08,-27.04,0.00,0.00,559.00
"USC00502465","1982-02-18",-0.04,-27.04,0.00,0.00,559.00
"USC00502465","1982-02-19",6.98,-23.98,0.00,0.00,559.00
"USC00502465","1982-02-20",8.06,-27.94,0.00,0.00,559.00
"USC00502465","1982-02-21",3.92,-25.06,0.00,0.00,559.00
"USC00502465","1982-02-22",8.96,-16.06,0.00,0.00,559.00
"USC00502465","1982-02-23",14.00,,0.00,0.00,559.00
"USC00502465","1982-02-24",24.98,,0.00,0.00,559.00
"USC00502465","1982-02-25",26.06,-9.94,0.00,0.00,559.00
"USC00502465","1982-02-26",30.02,,0.00,0.00,559.00
"USC00502465","1982-02-27",30.92,-0.04,0.00,0.00,559.00
"USC00502465","1982-02-28",32.00,,0.00,0.00,559.00
"USC00502465","1982-03-01",26.06,-4.00,0.00,0.00,559.00
"USC00502465","1982-03-02",19.94,-9.04,0.00,0.00,559.00
"USC00502465","1982-03-03",19.94,-9.04,0.00,0.00,559.00
"USC00502465","1982-03-04",26.06,-4.00,0.00,0.00,533.00
"USC00502465","1982-03-05",30.02,10.04,33.00,51.00,584.00
"USC00502465","1982-03-06",37.04,12.02,84.00,127.00,686.00
"USC00502465","1982-03-07",35.06,24.08,0.00,0.00,686.00
"USC00502465","1982-03-08",35.06,30.02,79.00,25.00,711.00
"USC00502465","1982-03-09",37.94,,229.00,25.00,737.00
"USC00502465","1982-03-10",35.06,,0.00,0.00,737.00
"USC00502465","1982-03-11",33.98,21.02,0.00,0.00,737.00
"USC00502465","1982-03-12",35.06,12.92,0.00,0.00,737.00
"USC00502465","1982-03-13",24.08,-0.04,0.00,0.00,737.00
"USC00502465","1982-03-14",28.04,,71.00,127.00,864.00
"USC00502465","1982-03-15",39.02,10.04,0.00,0.00,838.00
"USC00502465","1982-03-16",28.04,26.96,124.00,102.00,940.00
"USC00502465","1982-03-17",35.96,,361.00,51.00,991.00